COSMOS 1275 DEB, 13485

Orbit data source: Space-Track

COSMOS 1275 DEB, 13485 is space debris in LEO originally from a launch on Thu, 04 Jun 1981 UTC launched from the Plesetsk Missile And Space Complex (PKMTR). Debris objects in space refer to the collection of defunct objects orbiting the Earth. Examples of debris include non-operational satellites, rocket bodies, and fragments generated from explosions, collisions, or faulty payload assembly.

Loading next visibility...
Identifier
13485, 1981-053GF
Orbit
LEO
Country
Flag of CISCIS
Related business
Manufacturer
Unknown
Mission
Spacecraft
Bus & Motor
Unknown
Mass
Unknown
Launch date (UTC)
1981-06-04 (44 years ago)
Launch vehicle
Unknown
Launch site
Plesetsk Missile And Space Complex (PKMTR)
Object type
Payload
Rocket body
Debris
Shape & HBR
Unknown shape, 0.2 m
Radar Cross Section
Small (<0.1 m²)

Expand to show TLE details & history
Last TLE update: 15 hours ago

TLE from 15 hours ago
0 COSMOS 1275 DEB
1 13485U 81053GF  25309.13323075  .00000192  00000-0  16913-3 0  9996
2 13485  82.9410 332.7553 0065826 222.8419 204.6388 13.79576343182965
Epoch: 2025-11-05T03:11Z
TLE epoch observation values (Epoch: 2025-11-05T03:11:51.136Z)
Latitude
66.24059°
Longitude
-103.56696°
Altitude
1,020.845 km
Speed
7.325 km/s
True Right ascension
23h 16m 01s
True Declination
66° 07' 05"
Sunlit
Object was in daylight at epoch
Visualization orbit readout
Latitude
Unknown
Longitude
Unknown
Altitude
Unknown
Speed
Unknown
Apparent Right ascension
Unknown
Apparent Declination
Unknown
Sunlit
N/A
Visualization observer readout
Local Sidereal Time
14:13:02
Azimuth
Unknown
Elevation
Unknown
Doppler factor
Unknown
Orbital elements
Apogee altitude
1,010.853 km
Perigee altitude
914.211 km
Semi-major axis
7,340.669 km
Eccentricity
0.00658
Inclination
82.941°
RAAN
332.7553°
Arg. of periapsis
222.8419°
True anomaly
204.32667°
Mean anomaly
204.6388°
Eccentric anomaly
204.4825°
Mean motion
3.45096 °/min
Orbital period
104.32 mins
BSTAR
0.00016913
Loading maneuver chart data...
Computing Atmospheric mass density...
Loading historical data...
Loading historical data...
Loading historical data...
Loading historical data...
Loading historical data...
Loading historical data...
Loading historical data...

Documentation

Showing up to 5 results
|